Theta_e
344 345 344 344 344 344 344 343 342 341 340 340 341 341 341 340 340 340 340 339 339 340 341 340 340 340 339 340 340 340 339 339 339 339 338 338 338 339 339 338 335 335 336 336 336 336 335 335 335 335 336 336 335 335 335 335 339 340 339 338 336 337 337 336 337 336 336 337 336 337 337 336 336 336 335 334 334 333 333 333 332 332 332 331 331
343 342 342 342 342 342 341 341 340 340 340 339 340 341 340 340 340 340 339 339 339 340 340 340 340 339 339 340 341 340 339 339 339 339 337 336 337 338 339 339 336 334 335 335 335 335 335 334 335 335 335 336 336 336 336 335 336 337 336 336 336 334 335 337 338 337 336 336 336 336 336 335 335 335 335 334 333 333 333 332 332 332 333 332 331
339 338 339 339 339 339 339 340 339 339 339 339 339 340 339 339 339 339 339 338 339 339 339 339 339 339 339 339 340 340 339 339 339 339 338 336 336 337 338 339 337 335 335 334 334 334 335 334 334 334 334 336 336 336 337 335 334 335 336 336 335 332 332 335 337 336 333 334 335 335 335 334 334 334 334 333 332 333 333 333 332 333 333 332 331
336 335 336 337 337 337 338 338 338 338 339 338 338 338 338 337 337 337 337 337 338 337 337 338 338 338 338 338 338 338 338 338 338 338 338 338 336 335 336 336 337 336 336 335 333 333 334 334 334 334 333 335 336 335 336 335 333 335 336 335 333 331 332 335 335 335 334 334 336 334 334 334 334 334 333 333 333 332 333 334 333 333 334 333 331
334 333 333 334 334 335 335 335 336 336 337 337 337 336 336 337 337 336 336 336 337 336 336 337 337 337 338 338 338 337 337 338 338 338 339 339 337 335 335 336 337 337 337 335 334 334 334 334 334 334 333 333 335 335 335 335 335 334 334 333 333 334 336 336 335 336 336 335 335 335 334 334 334 335 334 333 333 332 333 334 333 333 334 333 332
330 330 330 331 331 331 331 331 332 333 335 336 336 336 336 336 336 337 336 336 336 336 336 337 337 337 337 338 338 337 337 337 338 338 338 338 338 336 335 336 337 337 337 336 336 336 335 334 334 334 333 332 334 335 335 335 335 335 336 335 336 338 337 335 335 336 335 334 335 335 334 333 334 335 334 334 334 333 334 334 333 333 333 333 333
327 327 328 329 329 329 329 329 330 331 332 333 334 335 336 336 336 336 336 336 336 336 336 337 337 337 337 338 338 337 337 337 338 339 339 339 338 336 336 336 336 337 337 336 336 336 336 335 335 334 333 332 334 335 335 336 336 336 336 335 336 337 335 334 334 335 334 335 335 335 333 333 333 334 333 334 334 333 333 334 333 333 332 332 333
325 325 325 327 327 327 328 328 328 329 330 331 332 334 335 335 336 336 336 336 336 336 336 336 336 336 337 337 338 336 336 337 337 338 339 338 338 338 337 336 336 337 336 336 336 336 336 335 336 335 334 333 334 334 334 336 336 336 336 335 335 335 334 334 334 333 333 335 335 333 333 334 333 332 331 332 333 332 333 333 333 333 332 332 333
324 323 323 325 326 326 326 327 327 327 329 330 331 332 333 334 334 335 335 335 336 336 336 336 336 336 337 337 337 337 337 337 337 338 339 338 339 339 338 336 337 336 336 336 335 335 335 335 336 336 335 334 334 334 333 334 335 336 336 335 334 335 334 334 335 334 332 333 333 332 333 333 330 331 331 332 332 332 333 333 333 333 333 333 333
322 322 323 324 324 325 325 326 326 326 327 328 329 330 330 331 332 333 333 333 334 334 335 336 336 336 336 336 337 337 338 339 338 338 338 339 339 338 337 337 337 336 335 335 335 335 335 335 336 336 335 334 334 334 334 335 335 335 335 334 333 335 334 334 334 334 333 332 332 332 332 332 330 331 333 333 333 332 333 333 333 334 334 334 333
321 322 323 323 323 324 325 325 325 325 325 326 327 328 328 329 329 330 330 330 331 331 332 334 334 335 336 336 337 338 338 338 338 337 337 339 339 338 338 338 337 336 336 335 334 335 335 336 336 336 337 336 334 335 335 335 336 335 335 333 333 334 334 334 334 334 333 333 333 332 331 332 331 331 333 334 334 333 332 331 333 333 333 333 332
320 320 322 323 324 323 324 324 324 324 324 325 325 326 327 327 327 328 328 328 328 328 329 330 332 333 334 335 336 337 337 337 337 335 335 337 337 337 339 338 337 335 335 335 335 335 335 335 335 335 336 336 335 335 335 335 335 335 335 334 334 334 333 334 333 333 334 333 333 333 332 332 330 331 333 334 334 334 332 331 332 332 332 332 332
319 319 320 322 323 322 322 322 323 323 323 324 324 324 325 325 325 326 326 326 326 326 327 328 329 330 331 333 334 335 336 336 336 334 334 334 333 335 338 337 337 336 336 336 336 336 335 335 334 334 335 335 335 335 335 335 335 335 335 335 334 333 333 333 333 334 335 333 333 333 332 332 330 331 333 334 332 333 333 332 331 331 331 331 331
318 318 319 320 321 321 321 321 321 322 322 322 322 322 323 323 323 324 324 325 325 325 326 327 327 328 329 331 331 333 334 335 335 334 334 334 332 333 333 332 333 335 337 337 336 335 335 334 334 334 334 334 335 335 335 335 335 335 335 335 335 333 333 334 334 334 334 333 334 333 332 332 331 331 332 333 332 333 333 332 331 331 331 331 330
318 318 318 319 320 320 320 320 320 320 321 320 320 320 321 321 322 323 323 324 324 324 324 325 326 326 327 329 330 330 331 332 334 334 335 334 333 332 331 331 332 333 335 337 335 334 336 335 334 334 334 335 335 335 335 335 335 335 334 335 335 335 335 334 334 334 334 334 334 333 332 332 332 331 331 333 333 333 333 333 333 331 331 331 330
318 318 318 319 319 319 319 319 318 319 319 319 319 319 320 320 321 321 322 323 323 323 323 324 324 325 326 327 328 328 329 331 332 333 334 334 334 334 333 334 335 334 334 335 334 334 335 335 334 334 333 334 334 335 335 335 335 335 334 334 334 335 335 334 334 334 333 334 333 332 332 331 331 331 331 333 334 333 334 334 333 332 331 330 331
317 317 317 318 318 317 318 318 318 318 318 318 319 319 319 319 319 320 321 321 322 322 322 323 323 323 324 325 326 327 328 329 330 332 333 333 334 335 335 335 335 333 333 334 334 334 333 333 334 334 333 333 334 334 335 335 335 335 334 334 334 334 334 334 335 334 333 333 332 332 332 331 331 331 332 333 333 333 333 333 333 332 331 330 330
316 316 317 317 317 316 317 317 317 317 317 318 318 319 319 319 319 320 320 320 321 321 321 322 322 322 323 323 324 325 326 327 328 330 331 332 333 333 334 334 334 333 333 333 333 334 333 332 333 333 333 333 333 334 335 335 334 334 334 334 334 334 334 334 335 335 334 333 333 332 332 333 332 332 334 333 331 332 333 333 332 331 331 330 330
316 315 315 316 315 315 316 316 317 317 317 317 317 318 318 318 318 320 321 320 319 320 321 321 321 321 321 322 322 323 324 325 327 328 330 331 332 332 331 331 333 334 333 332 332 333 333 332 331 331 332 333 334 334 334 334 334 334 334 334 333 334 334 334 334 334 334 333 332 332 332 332 332 333 335 333 330 332 333 333 332 330 331 330 330
315 314 314 315 314 314 315 316 316 316 316 317 317 318 318 317 317 318 319 319 319 319 319 320 320 320 320 321 321 322 323 324 325 327 328 329 331 332 331 331 332 333 333 331 331 332 332 332 331 330 329 330 333 334 334 334 334 334 334 334 333 334 334 334 334 334 334 333 333 332 331 332 331 332 335 334 330 331 332 332 332 331 332 331 331
313 313 313 314 314 314 315 315 315 316 316 316 317 317 316 316 317 317 318 319 318 318 318 318 319 319 320 320 320 320 321 322 323 324 326 327 329 330 331 332 332 333 333 332 331 331 331 331 331 330 329 329 332 334 334 334 334 334 334 334 334 334 334 334 335 335 335 333 333 333 332 332 331 330 333 334 331 331 333 333 332 331 332 331 331
312 312 313 314 314 314 315 315 315 315 315 315 315 315 315 316 316 316 317 317 317 317 317 317 318 318 318 319 319 319 320 320 321 322 323 325 327 328 330 331 332 332 333 333 332 332 331 331 331 331 331 330 330 332 334 334 334 334 334 334 334 334 334 334 334 335 334 333 333 332 332 332 331 331 333 334 333 332 333 333 332 332 331 330 331
312 312 313 314 314 314 314 314 313 314 314 314 314 315 315 315 315 316 316 316 316 316 316 317 317 317 317 318 318 318 318 319 319 320 321 322 323 325 327 329 331 332 333 333 332 332 331 331 331 331 332 331 329 330 333 334 333 334 334 333 333 333 333 334 334 334 333 333 333 332 332 331 330 332 334 334 333 333 332 331 331 331 330 330 331
311 313 313 313 314 314 313 313 312 313 313 314 314 314 314 315 315 315 315 315 316 316 316 316 316 316 316 317 317 317 317 318 318 319 320 320 321 323 325 327 329 330 331 332 332 332 331 331 331 331 331 331 330 330 333 334 333 334 333 333 333 333 333 333 334 333 332 332 333 333 332 331 330 331 332 333 334 333 330 330 330 329 329 330 331
311 312 312 313 313 313 312 312 312 312 313 313 313 313 314 314 314 314 314 315 315 315 315 316 316 316 316 316 316 316 316 317 317 318 319 319 321 322 324 325 328 329 330 330 331 332 332 331 331 331 330 331 330 330 332 333 333 333 333 333 333 332 333 333 333 333 332 332 333 333 333 332 331 332 330 331 333 332 329 329 329 328 329 330 331
312 312 312 313 313 312 312 312 312 312 312 312 312 312 313 313 313 313 313 314 314 315 315 315 315 315 315 315 315 315 315 316 316 317 318 319 320 321 322 324 326 328 329 330 330 330 331 331 331 331 330 330 330 330 331 332 332 333 333 333 333 332 333 333 332 332 332 333 332 332 333 332 332 333 332 332 333 332 330 330 329 329 330 331 331
311 312 312 312 313 313 312 311 311 311 311 311 311 311 312 312 312 312 313 313 314 314 314 314 314 314 315 315 315 315 315 315 315 316 317 318 319 319 320 321 323 324 326 328 329 329 330 330 331 331 331 331 331 330 330 331 333 333 333 333 333 333 332 332 332 332 333 333 332 332 332 331 331 332 333 333 333 332 332 331 330 330 329 329 331
311 311 311 311 312 312 312 312 311 310 310 311 310 310 311 311 311 311 312 312 313 313 314 314 314 314 314 315 315 314 315 315 315 315 315 316 317 317 318 319 320 320 322 324 326 327 328 329 330 330 330 330 330 330 330 331 332 333 332 332 333 332 331 331 332 333 333 332 331 332 331 330 331 333 332 332 333 332 331 330 329 328 328 329 331
310 310 310 310 311 311 311 311 311 310 310 310 309 310 310 310 310 310 311 312 312 312 313 313 313 314 314 314 314 314 314 315 315 315 315 315 315 315 316 316 317 318 319 320 321 323 325 327 328 329 330 330 329 329 330 331 331 332 332 331 331 331 331 331 331 332 331 331 331 331 331 331 332 332 332 331 332 331 329 329 329 329 329 329 328
309 310 310 310 310 310 310 310 310 310 310 310 310 310 310 309 310 310 310 311 311 312 312 312 313 313 313 313 314 314 314 314 314 314 314 314 314 314 314 314 315 315 315 316 317 319 321 322 324 326 328 329 329 328 330 330 330 331 331 331 330 330 330 330 330 330 329 330 331 331 330 331 332 331 331 331 331 330 329 329 329 329 329 328 327
308 309 309 309 310 310 309 309 309 309 309 309 309 310 309 309 310 309 309 310 310 311 311 312 312 312 312 312 313 313 313 313 314 313 313 313 313 313 312 312 312 312 312 313 314 315 316 317 319 320 323 325 327 327 328 329 329 329 329 329 329 330 330 330 330 330 328 329 331 330 329 331 332 331 331 331 330 329 329 329 329 329 328 328 328
308 308 308 308 309 309 308 308 308 308 308 308 308 308 309 309 309 309 309 310 310 310 310 311 311 311 311 311 311 312 312 312 312 312 312 312 312 312 311 311 310 310 310 311 312 312 312 314 315 316 318 320 322 324 325 326 328 329 328 328 329 328 328 329 330 329 328 329 331 331 330 330 331 331 330 330 329 329 329 329 329 329 328 329 329
307 307 307 307 308 308 307 307 307 308 307 307 308 308 308 308 308 308 309 309 310 310 309 310 310 310 310 310 310 311 311 311 311 311 311 311 311 311 310 309 309 309 309 309 310 310 310 311 311 312 313 316 317 319 322 324 326 327 327 328 328 327 327 329 329 329 330 330 330 331 331 331 330 330 330 329 329 329 329 328 328 328 329 329 329
306 306 306 307 307 306 306 306 306 306 306 307 307 307 307 307 308 308 308 308 308 308 308 309 309 309 309 309 309 310 310 310 310 310 310 310 310 310 309 308 308 307 307 307 308 308 308 308 308 308 309 311 312 313 317 320 323 325 326 327 327 328 328 328 329 330 330 329 328 330 331 330 330 330 329 328 328 329 329 328 329 329 329 328 328
304 305 306 306 305 305 306 306 306 306 306 306 306 307 307 307 307 307 307 307 307 307 308 308 308 308 308 308 308 308 309 309 309 309 309 309 309 308 308 307 307 307 306 306 306 306 306 305 305 305 306 307 308 309 311 315 319 321 324 325 326 327 328 327 328 330 330 328 329 331 330 330 329 329 328 328 328 328 328 328 328 327 326 326 326
304 304 305 305 305 305 305 305 305 305 305 306 306 306 306 307 307 307 307 307 307 307 307 307 307 308 308 308 307 307 308 308 308 308 308 308 308 307 307 307 307 307 306 305 305 305 304 303 303 303 303 304 305 306 307 311 314 317 320 322 324 325 327 327 328 330 329 329 329 329 328 328 329 328 327 327 327 327 328 328 326 324 323 324 324
304 304 304 304 304 304 305 305 305 305 305 305 305 306 306 306 306 306 306 306 306 306 306 307 307 307 307 307 307 307 307 307 307 307 307 307 307 306 306 306 306 306 306 305 305 304 303 302 302 301 301 301 302 304 306 309 311 314 316 319 322 324 326 328 329 329 328 328 328 328 327 327 328 328 327 326 326 326 327 327 325 322 320 320 320
304 304 304 304 304 304 304 304 305 305 305 305 305 305 305 305 305 305 305 305 305 305 305 306 306 306 306 306 306 306 306 306 306 307 306 306 306 306 306 306 305 305 305 305 305 305 303 302 301 301 301 300 301 302 306 309 311 313 315 318 321 323 323 324 325 324 324 325 326 327 328 327 327 327 326 325 325 326 326 325 323 320 318 317 316
303 304 304 304 304 304 304 304 304 304 304 305 305 305 305 305 305 305 305 305 305 305 305 305 306 305 305 306 306 306 306 306 306 306 306 306 306 305 305 305 305 304 304 304 305 304 303 302 301 300 300 300 300 301 304 309 311 313 315 318 320 320 319 318 318 318 319 320 321 324 327 328 327 326 326 325 325 325 325 323 321 319 318 317 315
303 304 304 304 304 304 304 304 304 304 304 304 304 304 304 304 304 304 304 304 304 304 304 304 305 305 305 305 305 305 305 305 306 306 306 306 306 305 305 304 304 304 304 303 303 303 303 301 301 300 299 299 299 300 303 307 310 313 314 316 317 316 314 313 314 313 313 314 316 320 323 325 325 325 324 324 323 323 323 322 320 319 318 316 314
303 303 304 304 304 303 303 303 303 303 303 303 303 304 303 303 304 304 304 304 304 304 304 304 304 304 304 304 304 304 304 305 305 305 305 305 305 305 305 304 304 303 303 302 302 302 302 301 300 300 299 298 298 299 301 303 307 310 311 312 312 312 311 311 311 309 309 310 312 314 316 319 322 322 321 321 322 322 322 321 320 319 316 314 313
303 303 303 303 303 303 303 303 303 303 303 303 303 303 303 303 303 303 303 303 303 304 303 303 303 303 303 303 303 303 303 303 304 304 304 304 304 304 304 304 303 303 302 302 302 302 302 301 300 299 299 299 298 298 299 301 303 306 307 308 309 309 310 311 310 307 305 304 306 308 310 313 316 318 318 319 320 320 320 319 318 317 314 312 311
302 303 303 303 303 303 302 303 302 302 302 302 302 302 302 302 302 302 303 303 303 303 303 303 303 303 303 303 302 302 302 302 303 303 303 303 303 303 303 303 303 303 302 302 302 302 301 301 301 300 299 299 298 298 298 300 302 304 306 308 309 309 310 311 309 305 302 302 303 305 307 309 312 314 315 316 317 317 316 315 314 313 311 310 310
302 302 302 302 302 302 302 302 302 302 302 302 302 302 302 302 302 302 302 302 303 303 303 303 303 303 302 302 302 302 302 301 302 302 302 302 301 301 301 301 301 301 301 301 301 301 301 301 301 300 299 298 298 298 298 298 299 300 301 304 305 306 308 308 306 303 302 303 303 304 306 307 309 310 312 312 312 312 311 310 310 309 308 308 308
302 302 301 302 302 301 302 302 302 301 301 301 301 302 302 302 301 302 302 302 302 303 303 303 302 302 302 302 302 302 301 301 301 301 301 301 301 300 300 300 300 300 300 300 300 300 300 300 300 300 299 297 297 297 297 298 298 298 298 299 300 301 303 304 303 301 301 301 303 304 305 306 307 308 309 309 308 307 307 307 307 307 308 308 308
302 301 301 301 301 301 301 301 301 301 301 301 301 301 301 301 301 301 301 301 301 302 303 302 302 302 302 302 302 302 302 301 301 300 300 300 300 300 299 299 299 299 299 299 299 299 299 299 299 299 298 297 296 296 297 297 297 298 298 298 298 299 300 300 300 300 300 301 302 303 304 304 305 305 305 305 304 305 305 306 306 307 307 308 307
301 301 301 301 301 301 301 301 301 301 301 301 301 301 300 300 301 301 301 301 301 302 302 302 302 302 302 302 302 302 302 301 301 301 300 300 300 299 299 298 298 298 298 298 298 298 298 298 298 298 298 297 296 296 296 296 297 297 297 298 298 298 298 299 299 299 299 300 300 301 301 302 302 302 302 302 303 303 303 304 304 305 305 305 305
301 301 301 301 301 301 301 301 301 301 300 300 301 300 300 300 300 301 301 301 301 301 301 301 302 302 302 302 302 302 302 302 302 301 300 299 299 299 299 298 297 297 297 298 297 297 297 297 296 297 297 296 296 296 296 296 296 297 297 297 297 297 297 298 298 298 298 299 299 300 300 300 301 301 300 300 300 300 300 301 301 301 302 302 302
301 301 301 301 301 301 301 301 301 301 300 300 300 300 300 300 300 300 300 300 300 301 301 301 301 301 301 302 302 302 302 302 302 301 299 298 298 299 299 298 297 297 297 297 297 297 297 297 296 296 296 296 295 296 296 295 296 296 296 297 297 297 297 297 297 298 298 298 298 298 298 298 298 298 298 297 298 298 298 298 299 299 299 300 300
301 301 301 301 301 301 301 301 301 300 300 300 300 300 300 300 300 300 300 300 300 300 300 300 300 300 300 301 301 302 302 301 302 301 300 299 298 298 298 298 297 297 297 298 298 297 297 297 297 296 296 296 296 296 296 296 296 296 296 296 296 297 297 297 297 298 298 297 296 295 295 295 296 296 296 296 296 296 296 296 297 297 298 298 298
301 301 301 301 300 300 300 300 300 300 300 300 300 300 300 300 299 299 300 300 300 299 299 300 300 299 299 300 300 301 301 301 301 301 301 301 299 298 298 297 297 297 297 297 298 298 298 297 297 297 297 296 297 297 297 297 296 296 296 296 295 296 296 296 297 298 297 296 295 294 294 294 294 294 294 295 295 295 295 295 295 295 296 296 296
Wind_Speed
9 10 9 9 10 10 9 9 8 8 7 6 6 6 5 6 7 7 6 5 3 4 5 6 7 8 8 9 9 9 8 8 10 10 11 12 10 7 6 7 8 9 10 12 13 14 13 12 11 11 12 14 15 18 20 15 12 12 12 13 13 13 12 11 11 11 10 9 10 9 8 7 7 7 9 9 9 10 11 11 9 8 8 9 9
10 11 12 12 11 11 10 9 9 9 9 8 7 7 7 7 9 8 7 6 5 4 5 6 7 8 9 9 8 8 8 7 8 9 11 12 10 9 8 7 8 9 11 13 13 14 15 15 13 13 14 15 15 17 17 14 16 16 16 16 15 14 12 11 11 12 11 10 9 7 6 6 7 8 9 11 11 11 12 12 10 9 8 9 9
10 12 13 13 12 11 10 9 8 9 9 10 10 10 9 9 9 9 7 7 6 6 6 8 8 9 10 9 8 8 8 8 8 8 9 10 9 9 9 8 8 9 12 13 13 13 15 16 16 15 15 14 13 15 15 12 14 15 16 14 13 16 14 13 14 13 12 10 7 6 5 5 5 7 11 13 14 13 12 13 11 9 9 10 10
11 11 11 13 13 13 12 11 11 11 11 12 12 11 10 9 9 8 7 7 6 6 6 7 8 8 8 9 8 9 10 10 10 8 6 7 9 10 11 11 9 9 11 12 13 13 14 14 15 16 15 13 13 15 15 13 13 15 16 13 14 18 15 12 14 14 12 8 6 5 3 4 5 6 11 13 15 16 13 12 12 11 11 11 11
11 10 11 12 14 14 15 14 13 13 13 13 11 9 8 8 8 6 5 6 5 5 5 6 6 6 7 7 7 8 9 9 9 7 5 5 8 11 11 10 9 9 10 11 13 13 14 15 15 15 15 14 15 15 16 16 14 13 14 14 14 15 11 9 11 12 12 10 6 4 3 3 5 6 9 10 15 17 14 14 14 13 13 13 11
10 10 11 12 14 15 15 16 15 14 14 14 12 10 9 8 8 7 5 5 5 4 4 4 5 4 5 7 7 8 8 8 7 5 5 5 7 10 10 9 9 9 10 11 12 12 13 15 16 17 17 17 17 18 17 16 16 13 12 14 12 10 8 6 7 9 11 12 9 7 4 2 3 5 6 6 11 14 14 15 15 14 14 14 13
9 10 11 12 14 14 15 15 14 14 14 13 13 13 12 10 9 8 7 6 5 4 3 3 4 4 5 7 8 9 9 9 7 4 4 5 7 9 8 9 9 8 9 10 11 11 12 14 16 18 19 18 18 19 18 16 17 16 14 14 12 11 12 9 8 11 10 10 12 11 10 10 7 6 5 4 6 10 13 15 15 15 15 14 15
8 9 10 12 14 14 14 14 13 13 13 13 12 12 12 12 11 10 9 7 6 5 3 3 4 4 6 7 9 9 9 10 8 5 4 5 7 8 8 8 8 9 9 10 11 12 12 13 15 17 20 20 18 19 20 19 18 17 16 17 15 15 17 13 11 13 13 10 11 12 13 16 15 12 12 9 6 6 10 12 13 14 14 13 14
9 9 10 12 13 14 14 13 13 13 13 13 12 11 11 11 12 12 11 9 8 6 5 5 5 5 7 8 9 10 9 9 8 5 5 5 6 7 8 8 9 9 10 10 11 12 13 14 14 16 20 22 22 21 22 22 19 19 18 18 17 17 18 16 12 13 16 15 13 13 14 16 20 21 19 14 10 7 7 8 11 13 12 13 14
9 9 11 12 12 12 12 12 13 12 12 12 11 11 11 11 11 11 11 11 10 9 9 8 7 7 7 8 9 10 10 10 8 7 6 6 7 9 10 9 10 11 11 11 12 12 13 14 14 16 18 21 24 24 22 21 21 22 20 18 19 18 18 19 17 16 17 17 16 15 14 13 17 19 16 14 12 8 6 8 12 13 11 12 15
8 8 10 12 11 11 11 12 12 12 11 11 11 11 11 11 11 11 11 11 11 11 12 12 10 9 9 9 10 11 11 10 9 9 8 7 9 10 10 10 11 12 12 12 13 13 14 14 14 16 17 18 22 24 23 21 20 22 21 20 21 21 21 21 21 20 19 18 18 19 18 17 18 19 14 14 12 8 7 7 11 14 12 13 16
7 7 9 10 10 11 11 11 11 11 12 11 11 11 10 11 11 11 11 11 11 11 12 12 12 11 12 12 12 12 13 12 10 11 12 10 12 13 11 11 11 11 12 12 13 14 14 14 15 16 17 18 20 22 24 22 18 19 21 23 24 24 24 23 21 22 21 21 20 22 23 21 23 25 16 12 12 9 8 6 9 13 12 11 15
8 8 8 9 10 11 11 11 11 11 12 12 12 11 11 11 12 12 12 12 11 11 11 11 11 12 12 13 13 14 14 13 11 12 14 13 14 15 12 12 11 11 11 12 13 14 15 16 16 17 17 18 18 19 21 22 20 19 21 22 24 25 24 24 24 23 23 24 23 25 26 21 21 24 16 11 13 10 9 8 9 11 9 10 14
8 7 8 8 9 10 10 10 11 11 12 12 12 12 11 11 12 12 12 12 12 11 11 11 11 11 12 12 13 14 14 14 13 13 14 14 15 16 16 16 15 13 10 10 12 14 15 17 17 16 16 16 17 18 19 21 21 21 20 20 22 23 23 23 24 24 24 24 22 23 25 21 19 21 19 16 13 10 9 9 7 8 9 10 13
7 7 8 8 10 10 10 11 11 11 12 12 12 12 12 12 12 12 12 12 12 12 11 11 11 11 11 12 12 13 13 14 14 14 14 14 15 17 18 17 16 15 12 10 11 12 13 16 17 15 14 14 15 16 18 19 19 18 18 20 21 20 21 22 23 24 24 24 23 23 23 22 19 21 23 19 13 10 10 10 7 6 8 8 9
7 7 8 9 11 11 11 11 12 12 12 12 13 13 12 12 12 13 12 12 12 12 12 11 11 11 11 11 12 13 13 14 15 15 16 15 15 15 16 14 14 16 16 13 12 12 13 16 16 15 15 14 15 15 16 18 18 17 17 19 21 20 20 22 22 23 25 25 26 25 23 21 19 21 23 18 12 11 9 9 11 10 8 7 7
7 8 8 10 11 11 11 11 11 12 12 12 12 13 13 13 13 13 13 13 13 13 13 12 12 12 11 12 13 14 14 14 15 17 18 17 16 14 13 13 14 16 18 17 15 13 15 17 17 16 16 15 15 15 15 17 19 19 18 19 20 21 21 20 20 22 25 27 27 25 24 21 20 21 20 17 15 14 11 10 12 13 10 8 6
8 8 8 10 10 10 10 10 10 11 11 12 12 12 13 13 13 12 13 14 14 13 13 13 13 13 12 14 15 15 15 15 15 17 18 19 18 16 13 13 14 17 18 18 17 16 16 18 18 18 18 17 16 16 17 18 20 21 20 20 20 21 21 20 19 21 23 26 27 26 24 23 22 21 19 20 19 16 12 11 14 16 14 10 8
7 7 7 8 9 9 9 9 10 11 11 12 12 12 12 13 13 13 13 13 14 14 13 13 13 13 14 15 16 16 16 16 16 17 17 18 19 18 16 15 15 16 17 16 16 17 17 17 18 19 19 18 17 17 17 17 20 20 20 22 23 21 20 19 20 20 21 22 23 24 24 24 24 21 18 20 22 19 16 15 16 18 15 13 12
6 6 6 7 8 9 9 10 10 11 11 12 11 12 13 13 14 15 14 13 13 14 13 13 13 14 15 16 16 16 16 16 16 17 17 18 19 19 18 16 15 14 15 16 16 17 17 17 18 19 20 20 18 17 17 17 18 19 20 23 24 22 20 20 19 18 19 21 22 22 23 25 25 23 19 21 24 22 19 17 17 16 14 14 13
6 6 6 7 8 9 10 10 10 11 12 12 12 13 13 14 14 14 14 14 14 14 14 14 14 15 16 16 16 16 16 16 17 18 18 18 19 19 18 16 15 13 13 13 14 14 15 16 18 19 21 22 19 17 18 19 19 20 20 21 22 22 22 21 20 19 21 24 24 23 24 25 26 25 21 21 24 23 19 18 19 17 16 17 16
7 6 6 8 9 10 10 11 11 11 12 13 12 12 13 14 14 13 14 15 15 14 14 15 15 16 17 17 17 17 16 17 17 17 18 18 18 19 19 17 16 14 12 12 12 12 13 16 20 20 20 22 22 20 18 19 21 21 21 21 21 23 24 23 21 22 24 26 24 25 25 25 25 25 21 20 22 21 18 18 18 17 18 19 17
7 7 7 9 9 10 10 12 12 12 13 13 13 13 13 14 14 14 14 15 15 15 15 15 15 16 17 17 17 18 17 18 18 17 17 18 19 19 20 20 18 16 14 13 13 13 14 17 20 20 19 20 24 24 20 19 21 21 22 22 22 24 24 24 23 23 24 24 22 25 26 23 23 24 21 19 19 21 22 22 20 18 20 19 16
7 7 9 9 10 10 11 12 12 13 13 13 14 14 14 14 15 14 15 15 15 15 15 16 16 17 17 17 18 18 18 18 18 18 18 19 19 19 19 20 20 18 15 15 15 15 16 18 20 21 20 22 26 26 21 19 20 20 22 22 22 24 24 24 23 22 24 23 23 25 25 23 24 25 24 20 18 21 25 27 23 21 22 19 17
8 8 9 10 11 12 12 12 13 13 14 13 14 14 14 15 15 15 16 16 16 16 17 17 17 18 18 18 19 18 18 18 18 18 19 19 19 19 18 19 20 20 17 16 16 16 18 20 21 22 24 27 29 26 20 18 19 20 21 22 22 23 23 23 22 23 25 24 23 22 22 22 24 24 24 22 20 24 27 28 27 25 24 19 17
8 8 8 9 11 11 12 13 13 14 14 14 14 15 14 15 16 16 17 17 16 17 17 17 18 18 18 19 20 19 18 19 18 18 19 19 19 19 19 19 20 20 19 18 17 17 18 19 20 22 27 29 28 24 20 19 19 21 22 22 22 23 21 22 23 23 24 24 24 23 22 22 23 23 24 22 20 23 25 25 24 23 22 18 15
8 8 8 9 10 11 12 13 13 14 14 14 14 15 15 16 17 17 17 16 16 17 17 18 18 19 19 20 20 19 19 19 19 18 19 19 19 19 19 20 21 21 20 20 19 18 18 19 20 22 25 27 25 21 19 20 21 22 21 20 22 25 23 22 23 22 24 26 26 26 24 25 26 25 25 23 19 21 23 22 20 17 18 17 16
8 8 9 9 10 10 11 12 13 14 15 15 15 15 15 16 16 16 16 16 16 16 17 17 18 18 19 19 19 19 19 19 19 19 19 19 19 20 20 20 21 22 21 20 20 20 20 20 21 22 23 25 24 18 17 21 22 22 22 20 22 24 22 22 23 24 27 30 28 27 26 26 25 24 25 23 20 23 25 23 18 14 16 15 12
8 9 9 9 9 10 11 11 12 13 14 15 14 14 15 16 16 16 16 17 17 16 16 17 17 18 19 19 19 19 19 19 19 20 20 19 19 20 21 20 20 21 21 21 21 21 21 21 21 23 22 23 24 19 17 21 22 21 20 19 22 24 22 23 24 23 25 28 27 26 25 24 21 22 25 24 22 25 26 23 19 15 14 12 6
8 8 8 8 9 10 11 12 12 13 14 14 14 14 15 15 16 17 17 18 17 17 17 17 18 18 19 19 19 19 19 19 19 20 20 20 21 21 21 21 21 21 21 22 22 21 21 21 22 22 21 22 23 22 21 22 23 23 21 18 19 21 22 26 27 24 23 25 26 24 23 21 19 21 23 23 23 23 22 22 20 16 14 12 8
8 7 7 8 9 10 10 11 12 13 13 14 14 15 15 15 16 17 17 17 17 18 18 18 18 19 19 19 19 20 20 19 20 20 20 21 21 22 22 21 21 21 22 22 22 22 21 21 21 22 22 22 21 18 19 22 25 26 23 20 18 18 20 25 27 26 26 26 25 23 21 21 21 21 21 22 22 21 20 21 21 17 15 13 13
7 7 8 8 8 9 10 11 11 12 12 13 14 14 15 15 16 16 16 16 16 17 18 18 19 19 20 20 20 20 20 20 20 20 20 20 21 22 22 21 21 21 21 21 21 21 21 21 21 21 22 22 20 17 17 20 23 25 24 22 23 21 20 23 26 28 27 26 24 20 18 20 22 22 21 21 21 21 21 22 20 16 13 12 13
7 7 8 8 8 9 10 10 11 12 12 13 13 13 14 15 16 16 17 18 19 18 18 18 19 20 20 20 20 20 20 20 20 20 20 20 20 21 22 21 21 22 21 20 20 21 21 21 21 22 21 20 20 21 21 19 20 22 23 23 25 25 22 24 27 28 27 26 23 19 16 16 18 21 21 20 21 21 21 22 20 15 11 9 10
7 7 8 9 9 9 10 10 11 11 11 12 12 13 14 14 15 16 16 18 19 18 18 18 19 20 20 20 21 20 20 20 20 20 20 20 20 21 21 21 21 22 22 21 21 21 21 21 21 22 21 20 19 22 23 22 22 22 22 22 25 27 25 25 26 26 26 26 24 22 19 15 16 20 21 19 19 20 20 18 16 12 9 8 8
7 7 8 9 9 9 10 10 11 11 11 12 12 13 13 14 15 16 16 16 17 17 18 18 19 20 20 20 21 20 20 20 20 20 20 20 20 20 20 20 20 20 21 21 21 21 21 22 22 22 22 20 20 23 25 24 24 23 21 21 24 27 26 25 25 24 23 23 23 23 21 17 17 19 20 19 18 18 17 14 12 10 9 9 9
8 8 9 10 10 10 11 11 11 12 11 12 13 13 13 14 14 15 15 15 16 17 18 18 19 19 20 20 20 20 20 20 20 20 20 20 20 20 20 20 19 19 20 20 21 21 21 22 23 22 23 22 21 23 25 24 24 24 22 20 21 25 24 22 23 23 20 18 19 20 20 19 18 17 18 19 18 16 14 14 14 14 12 11 9
10 10 10 9 10 10 11 11 12 12 12 13 13 13 13 13 14 15 15 16 16 17 18 18 19 19 19 19 20 20 20 20 20 21 21 21 21 20 20 20 19 19 20 21 21 21 20 21 22 22 24 24 23 23 23 21 22 22 20 20 21 22 20 18 20 21 18 16 17 19 19 19 19 18 18 17 15 14 15 16 16 14 10 9 9
10 10 10 10 10 10 11 11 12 12 13 13 13 13 13 14 15 15 16 16 17 18 18 18 18 19 19 19 19 19 20 20 21 21 22 22 21 21 20 20 19 19 19 20 20 20 19 20 21 22 25 26 25 25 23 17 16 15 13 14 16 15 9 8 11 12 12 13 15 17 17 17 19 20 19 18 15 14 16 16 15 13 11 11 11
9 9 10 10 10 10 10 11 12 12 12 12 12 13 14 14 15 16 16 17 18 18 18 18 17 18 18 19 19 20 20 20 20 21 21 21 21 21 21 20 19 19 19 18 19 20 20 20 20 21 26 29 28 27 26 19 11 7 3 3 8 9 9 12 14 12 10 10 11 13 14 15 18 19 19 20 18 15 15 15 14 13 13 13 14
9 9 9 9 10 10 11 11 12 12 12 12 12 13 13 14 15 15 16 17 18 18 17 16 16 17 18 19 19 19 19 19 20 20 20 19 19 20 21 20 19 19 19 19 19 19 19 20 20 21 24 28 30 29 28 23 15 9 7 8 12 16 16 16 16 14 11 10 10 12 13 14 18 19 19 19 18 14 13 14 12 12 14 15 16
9 8 8 9 10 10 11 11 11 11 11 12 12 13 13 14 14 15 16 16 17 17 16 16 16 16 17 18 19 19 19 19 19 19 19 19 19 19 20 20 19 19 20 21 20 20 20 20 21 21 21 24 29 32 31 27 21 16 11 11 15 17 16 16 17 15 14 13 13 14 15 17 20 20 19 18 16 14 13 13 11 13 16 19 19
9 8 8 9 10 10 10 11 11 11 11 12 13 13 13 14 14 15 15 15 16 16 16 17 17 17 17 18 19 20 19 18 19 19 19 19 19 19 19 19 20 20 20 22 22 22 21 20 21 22 21 21 26 33 35 31 26 22 18 18 20 20 15 14 16 16 16 16 16 16 16 17 19 19 18 16 15 14 14 13 14 17 20 20 18
9 8 8 8 9 9 10 10 10 10 11 12 13 13 14 14 14 14 14 14 15 15 15 16 17 18 19 18 19 20 20 18 19 19 19 20 20 20 19 19 19 19 19 21 22 22 21 21 23 26 26 24 25 30 34 35 33 29 26 23 21 19 14 12 15 17 17 16 17 17 15 14 15 17 17 16 16 16 17 18 19 21 21 20 18
8 8 8 8 8 9 9 10 10 10 10 11 12 12 13 14 14 14 14 14 14 15 15 15 16 17 18 18 18 20 21 20 20 19 19 20 21 21 20 20 20 19 19 19 20 20 20 21 23 27 29 29 28 28 32 35 35 34 32 29 25 22 18 16 19 21 20 18 18 18 16 15 15 15 16 18 18 19 21 22 21 21 20 19 19
8 7 7 8 9 9 9 10 10 10 10 11 11 12 13 13 13 14 14 13 13 14 14 15 15 16 17 18 18 19 20 21 22 21 20 21 22 22 22 21 20 20 19 20 20 20 19 19 21 23 26 30 33 33 33 34 33 32 32 32 31 30 27 25 26 26 23 22 21 19 18 18 18 18 19 21 22 23 23 23 22 21 19 16 16
8 7 7 7 8 8 9 9 9 10 11 11 11 11 12 12 13 13 13 13 13 14 14 14 15 15 16 17 18 17 18 20 22 23 22 21 21 22 22 22 22 21 20 20 20 20 19 18 19 20 22 27 33 37 37 35 34 34 33 32 31 30 29 28 27 26 24 24 23 22 22 22 22 22 23 24 24 22 21 21 20 19 18 16 15
8 7 7 7 8 8 8 9 9 10 11 11 11 11 12 13 13 13 13 13 14 14 14 13 14 15 15 16 16 16 16 17 18 21 22 21 21 22 22 23 22 22 22 21 21 20 20 19 18 18 19 23 30 35 36 35 34 33 33 33 31 29 27 25 25 24 23 24 24 24 25 25 25 25 25 25 24 23 22 21 20 20 20 19 19
8 8 8 8 9 9 8 9 9 10 10 10 11 12 12 13 13 13 13 13 13 13 14 14 15 15 14 15 15 15 16 16 15 16 19 20 20 21 21 21 20 20 21 21 21 19 19 19 19 19 18 20 26 31 32 31 30 29 29 29 29 29 27 25 23 22 22 22 23 23 24 24 25 25 26 25 25 25 25 24 23 22 22 21 20
8 9 9 8 9 8 8 9 8 9 10 10 11 12 13 13 13 13 13 13 13 13 14 14 14 14 14 14 14 14 15 15 13 12 15 19 21 21 19 17 18 20 20 19 19 19 18 18 20 21 19 19 22 25 25 25 26 26 25 24 24 23 23 23 22 21 22 23 24 24 24 24 24 25 26 26 25 25 25 24 23 23 22 21 20
8 8 9 9 9 8 8 9 8 8 9 10 10 12 12 13 13 13 13 13 13 13 13 13 14 14 13 13 14 13 14 15 13 10 11 14 18 21 21 18 17 19 20 20 20 20 19 17 17 19 18 17 18 19 20 22 24 25 24 23 21 18 17 17 16 16 21 25 27 26 26 25 25 26 25 25 24 24 24 23 23 23 22 21 21
8 7 8 8 8 8 8 9 9 9 9 9 10 11 12 12 13 13 13 13 13 14 14 14 14 14 14 13 14 14 13 14 14 12 10 9 10 15 18 19 18 19 20 20 20 19 19 19 18 16 16 15 14 16 18 20 22 23 23 22 21 19 17 15 12 12 18 23 24 24 24 24 24 25 23 22 22 23 22 21 22 23 22 21 21
Wind_Direction
84 78 71 70 72 72 76 73 63 64 63 54 53 44 21 10 14 20 21 10 327 289 276 273 270 274 275 274 274 270 272 274 271 269 264 267 271 258 244 243 247 250 242 239 246 250 249 247 247 248 247 238 237 247 244 225 201 195 201 205 205 208 205 200 201 197 192 186 182 179 178 187 192 200 215 218 211 198 195 204 199 187 182 175 183
76 70 62 63 69 69 67 62 54 59 60 54 56 51 37 24 19 16 14 12 347 316 301 288 286 297 298 293 292 287 288 286 280 274 266 266 262 243 232 232 241 242 241 241 245 248 244 242 243 240 240 237 235 250 252 226 206 202 203 206 211 219 212 197 197 197 198 195 182 177 177 191 205 211 220 218 213 208 200 203 201 187 182 176 180
71 66 64 62 66 66 66 64 55 57 61 54 48 43 36 26 21 18 14 8 355 341 323 310 312 314 309 306 304 299 297 291 285 279 273 272 267 252 238 231 233 235 240 239 238 241 237 237 239 235 240 242 236 248 256 235 212 206 205 203 211 230 228 204 201 206 209 198 180 188 183 189 220 219 222 219 211 212 207 202 200 189 185 182 183
73 68 66 66 66 62 61 60 53 52 54 50 45 40 32 24 20 19 14 8 358 349 332 319 322 322 315 314 311 306 300 288 281 279 272 265 266 263 246 237 234 227 233 236 235 238 233 229 231 230 235 240 239 243 248 242 221 207 208 206 209 225 225 205 207 216 221 210 186 198 178 181 225 212 212 218 211 211 208 201 199 190 191 193 192
73 69 64 63 60 55 53 52 51 51 49 47 49 46 36 32 32 30 23 16 6 353 342 330 327 323 319 318 310 303 296 283 278 278 274 257 257 261 249 244 244 228 229 235 236 236 230 224 222 225 230 231 231 231 236 243 232 212 207 206 210 221 218 201 207 217 231 235 214 201 169 194 233 190 185 211 213 210 205 202 202 193 193 196 198
67 65 62 61 57 54 51 46 44 43 40 41 48 50 44 42 45 50 50 39 22 2 349 339 329 314 307 301 291 297 299 288 284 286 285 263 251 257 250 243 242 231 226 226 228 229 226 224 223 227 231 227 222 219 225 237 237 228 213 205 208 216 210 196 201 215 235 244 235 225 216 233 245 178 167 195 208 212 209 205 203 197 194 194 198
66 63 61 59 56 55 52 46 41 38 37 38 42 44 43 45 49 53 54 49 37 21 1 335 322 303 292 289 285 293 296 293 296 291 276 262 253 255 245 238 238 230 228 226 226 225 220 220 222 226 230 226 219 214 217 223 227 230 226 218 216 215 214 207 206 215 227 242 243 242 251 256 243 198 190 196 194 210 212 207 203 198 197 196 199
68 63 58 56 55 55 54 51 47 43 42 42 42 41 41 43 47 49 48 47 43 25 360 330 320 307 289 282 283 290 292 293 294 277 259 253 253 256 245 241 239 229 231 233 230 227 222 218 216 219 222 222 218 213 214 216 218 223 224 223 223 224 223 216 211 216 219 231 238 236 245 254 250 227 216 218 207 198 197 201 202 195 198 201 198
68 64 58 55 54 53 54 54 51 48 46 45 45 43 42 41 42 44 42 37 32 18 356 331 311 301 290 283 286 292 293 292 287 270 253 241 240 250 247 243 239 234 234 232 230 228 226 222 215 217 219 219 219 215 216 218 217 218 218 217 220 225 226 221 218 219 221 229 235 231 231 244 254 246 229 222 222 211 187 187 191 187 195 202 197
65 65 61 58 56 55 55 55 52 48 44 43 42 43 41 38 35 36 34 27 19 8 357 346 326 307 299 294 291 291 292 292 289 277 259 244 239 243 242 239 237 239 239 234 231 227 225 224 219 220 219 218 218 214 214 218 218 218 219 222 222 221 222 223 222 221 222 229 233 235 232 232 248 251 236 225 228 223 200 183 182 184 191 195 194
65 66 65 62 60 58 54 52 49 43 40 39 38 39 37 33 31 31 28 20 11 359 351 349 342 328 319 312 302 296 293 290 291 288 275 258 251 248 241 237 236 239 241 239 234 225 221 222 220 221 220 217 215 211 211 216 217 215 216 220 221 219 220 219 222 225 225 228 230 232 234 229 238 248 237 222 227 220 209 194 183 189 195 191 190
70 64 63 62 56 52 46 44 42 37 35 35 33 32 31 29 27 26 24 16 9 359 349 347 343 336 331 326 320 313 303 294 293 290 283 275 267 260 247 240 238 234 236 240 237 227 220 219 218 220 221 218 216 214 214 217 217 213 209 209 211 217 219 213 215 221 220 224 228 231 234 229 236 250 245 224 228 223 216 209 184 192 198 187 183
69 61 56 54 47 43 40 37 35 31 29 28 27 26 25 24 22 21 19 12 6 358 350 348 344 340 334 329 326 321 314 308 300 284 276 275 272 269 264 258 251 237 230 233 238 234 225 222 219 217 219 220 221 220 220 221 223 220 213 208 209 215 216 210 210 217 221 225 226 230 235 230 235 250 255 238 232 225 222 221 194 192 196 181 178
66 61 56 51 45 42 37 33 30 26 23 21 21 21 20 19 18 16 13 9 3 357 351 346 342 340 336 332 327 322 317 314 309 293 280 276 276 277 277 271 266 259 245 236 242 241 234 231 227 221 219 218 222 224 224 225 226 225 220 212 211 215 216 213 214 220 225 226 224 228 233 232 236 250 258 246 228 215 218 222 205 193 192 188 184
68 64 58 51 44 40 35 31 27 22 20 17 16 16 16 16 14 12 10 6 2 357 354 347 342 338 333 332 330 324 318 313 309 303 294 288 284 282 278 272 271 273 272 266 261 257 248 240 234 228 222 217 221 225 227 227 224 223 222 215 212 212 212 213 213 217 220 220 222 225 230 233 236 245 251 244 226 215 217 219 221 200 187 194 190
68 62 55 47 40 35 31 28 23 18 17 15 14 13 14 14 12 11 8 4 2 357 354 350 344 340 334 332 331 327 322 315 311 308 305 300 292 284 280 278 276 274 278 281 273 266 263 254 242 235 229 222 222 226 229 230 227 223 220 218 217 212 209 210 207 209 214 217 220 223 225 229 232 236 241 238 223 221 221 219 224 215 195 194 192
63 56 48 42 36 30 26 23 20 17 14 12 14 15 15 13 11 10 7 3 1 358 353 350 345 342 340 338 334 329 324 320 317 315 312 308 301 293 287 286 282 275 276 280 277 269 265 262 253 243 236 229 225 226 229 231 229 225 221 220 219 213 212 211 204 205 212 217 220 223 225 225 226 230 234 229 219 224 229 220 224 226 213 198 195
61 57 50 43 37 29 25 23 22 19 14 13 14 15 16 15 11 9 8 4 0 358 353 350 347 344 343 341 337 333 327 322 317 315 314 311 305 301 297 292 285 278 276 276 275 269 263 262 259 251 242 233 226 225 229 231 231 227 221 221 220 217 218 216 208 206 210 215 216 220 225 226 225 225 228 224 216 219 226 222 226 230 223 212 212
62 57 52 44 38 31 28 28 26 21 18 16 14 12 14 14 7 4 6 4 360 358 355 352 351 348 344 342 338 335 331 325 318 313 311 308 305 303 303 297 285 280 278 275 270 266 263 262 261 259 250 238 227 222 224 230 233 230 223 221 221 220 221 219 215 210 210 213 213 214 219 224 225 224 226 223 215 212 218 223 227 228 224 222 221
64 61 56 47 41 37 35 33 28 24 20 17 15 13 14 14 9 4 4 2 359 360 358 354 352 347 344 342 339 337 332 327 322 317 313 308 304 304 305 299 287 281 279 275 270 267 266 265 264 265 259 248 234 222 220 224 230 231 228 225 223 221 220 220 219 213 207 208 209 211 214 217 221 223 224 221 215 212 214 220 226 226 226 223 214
72 66 60 53 47 42 41 37 30 26 24 19 16 15 14 14 12 5 1 0 360 1 359 355 351 346 344 342 340 338 334 331 328 323 317 311 306 307 306 299 291 286 279 273 270 265 259 256 256 259 259 256 247 231 222 222 226 229 230 230 228 223 221 221 219 213 210 209 209 211 213 215 218 219 220 216 211 211 212 215 223 227 227 221 208
79 72 63 56 51 45 43 39 32 26 23 17 14 15 16 15 12 7 4 2 1 1 358 355 352 347 345 343 341 340 337 334 332 327 322 318 314 310 307 302 295 290 285 276 269 262 256 253 252 249 248 253 255 245 229 224 226 227 228 229 229 227 225 223 219 215 215 215 212 212 213 217 218 214 214 213 208 208 211 213 221 227 227 223 213
82 76 65 57 52 49 45 37 30 27 23 18 15 17 19 15 10 8 6 4 3 3 360 356 354 350 346 345 343 342 340 337 335 332 328 324 321 315 309 306 300 293 289 282 272 264 261 259 256 252 248 250 253 249 237 229 228 228 227 228 228 227 225 221 218 216 216 214 212 213 214 217 220 215 213 213 206 205 210 212 218 233 233 223 213
84 77 67 61 55 53 46 33 28 27 23 20 18 17 17 14 11 7 5 6 5 3 1 357 355 352 349 348 346 343 342 340 337 334 331 327 324 319 313 308 305 300 292 284 277 269 267 266 262 261 259 255 253 250 241 233 231 230 231 232 229 226 225 222 218 214 214 213 212 214 215 216 220 218 212 209 206 205 210 210 214 236 243 225 207
86 78 68 63 56 50 41 30 27 25 20 19 18 16 15 15 13 9 6 6 4 2 360 358 355 354 352 351 349 346 344 342 339 336 333 331 327 323 318 311 308 306 299 290 281 272 271 272 268 264 259 253 250 248 243 237 236 235 233 233 233 231 229 227 221 216 216 216 212 211 212 214 218 216 209 206 205 206 210 211 212 226 237 226 207
87 80 71 64 59 52 42 32 26 23 20 18 17 15 15 15 14 12 9 6 4 0 358 358 357 355 354 352 350 349 347 344 342 338 335 333 331 329 327 322 318 312 304 297 290 280 274 271 267 262 259 255 250 246 245 242 239 237 234 231 232 231 229 228 226 222 219 218 216 215 213 213 215 214 207 202 202 204 208 212 215 224 230 222 210
86 80 75 70 63 55 46 37 29 24 20 18 18 15 14 13 12 10 8 4 1 358 356 358 358 355 354 353 351 350 349 347 345 342 338 336 335 333 333 331 330 326 317 309 302 293 285 277 270 264 262 262 260 253 247 244 239 238 236 233 230 231 231 230 229 224 219 218 218 218 217 216 216 214 207 201 202 206 207 211 217 230 237 223 207
88 79 75 70 61 51 44 38 32 27 21 18 16 15 14 12 9 7 5 2 358 355 355 357 358 356 354 353 353 352 351 351 350 348 345 341 338 338 337 335 335 334 331 326 319 311 303 294 285 277 272 273 274 268 253 247 247 244 242 240 235 233 234 231 227 225 223 221 219 218 220 220 215 208 201 199 206 209 209 213 215 225 247 244 214
89 81 74 69 61 49 40 34 27 24 23 19 13 14 14 10 8 7 4 1 358 356 355 356 357 358 356 354 355 354 353 355 355 354 353 350 346 343 341 340 339 338 336 333 330 324 317 310 302 292 284 280 281 279 263 255 255 252 247 247 243 237 235 234 231 229 226 224 221 221 223 221 210 200 197 198 206 210 210 214 214 212 234 257 253
84 79 74 67 58 47 38 32 23 18 18 13 10 13 13 9 8 8 5 3 1 357 357 358 359 359 357 356 356 355 355 357 357 357 357 355 353 350 346 344 343 341 340 337 335 333 329 325 320 311 302 294 288 281 269 263 261 256 250 253 256 246 236 236 235 230 226 224 222 222 222 216 205 200 202 203 208 211 208 210 215 216 222 233 232
84 78 73 66 57 44 36 30 23 18 14 9 8 9 7 6 8 9 7 4 3 1 359 0 0 358 358 358 357 357 357 358 358 358 358 357 355 354 351 349 347 345 343 341 339 338 337 333 328 324 320 316 308 291 275 271 269 264 257 253 255 245 229 230 230 226 227 224 219 218 214 205 200 199 202 206 209 208 206 207 212 214 218 221 213
84 73 63 58 50 40 32 26 21 18 15 11 10 7 5 5 4 4 1 356 0 6 3 1 2 1 359 359 358 358 360 1 0 360 359 358 357 356 354 352 351 349 345 344 343 342 340 338 334 330 327 324 321 311 294 281 273 271 266 256 251 242 225 222 223 223 226 221 214 212 205 194 196 199 199 203 204 203 203 204 205 207 211 216 211
73 64 56 49 42 35 29 24 19 14 11 9 8 4 4 3 360 360 358 353 359 8 6 3 5 4 1 0 359 360 1 2 2 1 0 360 359 358 357 354 352 350 348 347 346 345 344 343 340 337 333 326 319 311 303 294 283 277 271 261 256 248 232 223 222 220 219 214 209 204 196 187 192 199 200 200 200 198 199 199 198 200 205 208 202
67 61 55 45 40 34 27 23 18 13 9 7 7 3 1 0 359 360 1 359 1 5 5 6 8 6 4 2 2 2 2 3 3 2 2 2 1 359 358 357 354 352 351 350 349 349 349 348 346 341 336 333 324 313 305 297 289 285 279 268 257 247 235 225 219 214 211 211 206 198 191 186 188 195 196 194 193 191 192 193 192 194 204 214 210
68 60 55 47 42 36 30 26 19 14 11 9 7 3 0 2 3 2 4 4 2 4 7 8 7 7 6 5 4 3 3 3 4 4 4 3 2 360 358 358 357 356 355 353 351 352 353 352 353 349 342 337 330 322 314 301 289 285 283 274 255 240 232 225 218 213 212 212 204 195 192 187 181 186 189 187 184 182 181 180 175 172 182 190 194
70 63 57 52 46 40 34 29 23 20 19 16 12 9 8 10 10 8 9 9 7 9 10 9 8 7 6 6 7 6 6 6 6 6 6 4 2 0 358 357 358 358 358 356 355 356 357 356 357 356 351 345 338 334 328 314 299 288 280 272 252 235 229 222 212 208 208 208 200 194 193 186 176 176 183 185 183 178 170 160 153 153 165 180 185
74 68 62 55 50 46 40 35 31 29 28 25 20 19 20 20 17 14 14 14 13 13 12 10 10 9 8 8 9 8 8 8 8 8 8 7 5 2 360 358 359 360 359 358 358 358 359 359 360 0 357 349 346 348 343 328 315 303 286 271 254 242 236 221 207 205 204 197 192 191 188 179 172 172 177 179 176 169 161 153 146 141 146 170 181
75 70 67 60 53 50 45 41 39 36 33 31 27 25 26 25 22 19 18 17 17 16 15 13 11 10 10 10 9 9 8 7 8 8 7 7 7 5 3 1 1 2 0 359 360 360 1 2 2 4 3 357 353 357 360 349 328 314 295 265 245 235 223 179 171 183 183 172 173 180 179 171 169 173 174 171 166 161 158 150 141 135 135 142 150
80 74 69 63 57 54 50 46 42 39 34 31 29 29 27 26 24 22 21 20 18 17 16 15 13 12 11 10 8 8 7 6 6 6 5 5 6 5 5 4 4 5 3 1 2 2 3 4 4 6 9 8 5 5 10 12 355 334 331 197 183 156 116 98 97 102 119 129 138 153 162 165 168 171 170 168 165 162 157 147 138 142 146 138 136
86 79 73 67 60 54 50 46 43 39 36 32 30 31 30 28 26 24 23 22 19 17 18 16 14 13 13 13 10 8 6 6 6 6 6 7 6 5 6 6 7 7 5 5 6 5 4 4 5 9 13 15 15 15 18 23 22 23 53 101 118 110 99 93 91 90 95 100 102 115 131 146 155 156 157 160 161 156 150 148 147 147 144 137 137
84 78 76 70 62 56 52 49 45 40 37 35 32 31 30 29 27 26 25 22 19 19 20 18 16 15 14 15 13 10 8 8 8 8 9 10 9 8 8 8 8 8 8 9 9 8 9 9 8 10 14 17 22 26 28 31 36 43 54 77 90 91 91 94 93 85 81 86 93 100 112 128 141 145 148 150 151 149 148 151 153 146 140 139 139
85 80 76 71 64 59 53 50 46 40 37 35 32 30 29 27 27 27 25 22 20 20 20 19 19 19 19 17 16 14 12 9 8 8 10 11 10 8 9 9 8 8 9 11 12 12 14 15 15 15 16 15 22 31 35 36 41 49 56 66 74 77 82 91 92 83 75 79 89 95 103 120 133 139 142 142 142 144 144 141 139 139 135 129 125
90 83 78 72 67 60 52 48 44 38 35 33 31 30 27 25 26 26 24 23 22 20 20 20 20 21 21 20 19 20 18 15 12 11 12 13 12 10 11 11 9 9 8 9 12 14 16 18 20 20 21 20 21 30 37 39 40 43 47 52 60 64 68 79 87 85 79 78 84 90 96 111 123 126 128 127 127 127 126 125 128 130 127 120 114
94 86 80 73 65 59 53 49 44 38 34 31 30 30 26 23 24 23 23 24 23 21 22 21 21 22 22 21 22 23 24 22 20 19 18 17 16 14 14 14 12 12 12 10 10 11 14 18 20 21 24 26 27 30 37 43 45 46 48 52 58 64 72 82 85 85 84 84 84 86 92 101 108 110 113 113 112 112 114 118 121 120 118 116 112
95 90 85 77 70 63 55 49 45 41 37 32 30 30 26 22 22 23 24 24 22 22 25 23 22 23 23 22 23 25 27 27 25 24 22 21 21 19 17 16 16 15 16 15 11 10 11 14 19 22 23 27 32 35 38 42 46 49 51 55 61 67 73 78 80 81 83 86 87 89 93 98 100 103 106 106 104 106 111 114 113 111 109 108 108
94 87 83 79 76 69 60 54 48 42 39 34 32 32 27 22 23 24 25 25 23 24 27 26 25 24 23 24 25 25 27 29 28 28 27 25 25 24 21 19 19 18 19 19 15 13 12 12 17 23 23 24 30 34 36 38 41 47 50 52 56 62 66 71 75 78 81 84 87 90 93 95 97 98 100 99 98 102 107 109 107 106 104 102 102
101 95 88 81 74 68 61 57 50 42 39 36 33 32 29 26 25 24 23 27 28 27 26 26 26 25 23 24 27 26 27 30 30 31 32 30 29 29 27 25 23 21 22 23 22 20 19 16 17 22 23 25 29 32 33 33 35 39 45 48 50 54 60 66 71 74 76 79 83 87 89 92 95 94 93 93 92 91 91 91 92 92 92 92 94
96 91 84 75 72 69 64 59 53 45 42 38 34 32 30 28 28 26 25 30 31 29 27 27 27 26 22 21 25 26 27 32 37 40 39 37 34 33 32 32 31 28 27 26 27 28 28 26 26 26 24 25 29 31 32 33 34 35 38 42 45 46 50 56 64 71 77 80 84 86 87 89 90 89 85 83 82 80 77 77 79 81 82 83 87
98 92 89 82 76 72 68 64 58 50 45 43 38 35 32 31 31 29 28 29 29 28 28 27 26 26 22 18 20 24 25 29 41 56 56 51 47 46 44 43 41 39 36 35 35 36 37 37 37 36 33 28 27 28 29 33 38 38 37 38 40 41 43 48 56 67 75 77 77 77 76 77 79 78 75 72 72 73 72 70 72 76 77 77 79
108 98 96 91 82 77 76 72 66 57 50 45 42 39 37 34 33 32 31 30 29 28 28 28 27 26 23 19 20 23 24 24 31 51 66 63 58 55 54 55 54 49 43 41 43 44 44 44 43 42 40 35 30 28 28 30 35 37 38 40 40 40 44 47 51 62 68 66 63 61 59 61 65 67 67 67 68 70 69 66 68 74 78 77 76
118 106 95 89 82 77 74 70 68 63 55 50 46 42 39 36 34 33 32 31 32 31 27 25 27 26 22 21 23 23 22 20 21 26 38 54 64 64 60 59 59 56 49 44 44 45 45 45 46 44 41 35 30 27 25 25 27 29 32 36 38 41 46 47 52 68 69 61 57 56 53 54 60 61 60 63 68 71 69 66 68 74 78 79 77